When you browse on this site, cookies collect data to enhance your experience and personalize the content and advertising you see.
Visit our Privacy Policy to learn more. By continuing to use the site, you agree to this use of cookies and data.

Hourly Weather Sevan

Today, 10 July, Friday

Time Temperature Precipitation Wind Pressure Humidity
00:00 +19°C° 0.1 mm 2 mps 642 mmHg 71%
01:00 +18°C° 0.3 mm 2 mps 642 mmHg 72%
02:00 +18°C° 0.3 mm 2 mps 642 mmHg 73%
03:00 +17°C° 0 mm 2 mps 642 mmHg 75%
04:00 +18°C° 0.7 mm 2 mps 642 mmHg 75%
05:00 +18°C° 0.7 mm 2 mps 642 mmHg 75%
06:00 +20°C° 0.7 mm 1 mps 642 mmHg 75%
07:00 +20°C° 0.8 mm 2 mps 643 mmHg 73%
08:00 +20°C° 0.8 mm 2 mps 643 mmHg 71%
09:00 +21°C° 0.8 mm 2 mps 643 mmHg 69%
10:00 +23°C° 0.8 mm 2 mps 643 mmHg 66%
11:00 +24°C° 0.8 mm 2 mps 643 mmHg 62%
12:00 +25°C° 0.8 mm 1 mps 643 mmHg 59%
13:00 +26°C° 0.4 mm 2 mps 643 mmHg 55%
14:00 +27°C° 0.4 mm 2 mps 643 mmHg 52%
15:00 +28°C° 0.4 mm 2 mps 643 mmHg 48%
16:00 +27°C° 0.4 mm 2 mps 643 mmHg 52%
17:00 +26°C° 0.4 mm 2 mps 643 mmHg 55%
18:00 +26°C° 0.4 mm 2 mps 643 mmHg 59%
19:00 +24°C° 0.8 mm 2 mps 643 mmHg 65%
20:00 +21°C° 0.8 mm 2 mps 643 mmHg 72%
21:00 +19°C° 0.8 mm 2 mps 642 mmHg 78%
22:00 +19°C° 0.6 mm 2 mps 642 mmHg 78%
23:00 +19°C° 0.6 mm 2 mps 642 mmHg 79%

Tomorrow, 11 July, Saturday

Time Temperature Precipitation Wind Pressure Humidity
00:00 +19°C° 0.6 mm 2 mps 643 mmHg 79%
01:00 +18°C° 0.4 mm 2 mps 642 mmHg 80%
02:00 +19°C° 0.4 mm 1 mps 642 mmHg 80%
03:00 +19°C° 0.4 mm 1 mps 642 mmHg 81%
04:00 +19°C° 0 mm 1 mps 642 mmHg 81%
05:00 +18°C° 0 mm 2 mps 642 mmHg 81%
06:00 +18°C° 0 mm 2 mps 642 mmHg 80%
07:00 +20°C° 0.6 mm 2 mps 643 mmHg 75%
08:00 +21°C° 0.6 mm 2 mps 643 mmHg 70%
09:00 +23°C° 0.6 mm 2 mps 643 mmHg 65%
10:00 +24°C° 1 mm 2 mps 643 mmHg 63%
11:00 +25°C° 1 mm 2 mps 643 mmHg 60%
12:00 +26°C° 1 mm 2 mps 643 mmHg 57%
13:00 +26°C° 0.6 mm 2 mps 643 mmHg 56%
14:00 +26°C° 0.6 mm 3 mps 643 mmHg 56%
15:00 +27°C° 0.6 mm 3 mps 643 mmHg 55%
16:00 +26°C° 0.5 mm 3 mps 642 mmHg 58%
17:00 +25°C° 0.5 mm 3 mps 642 mmHg 61%
18:00 +23°C° 0.5 mm 4 mps 642 mmHg 65%
19:00 +22°C° 0.8 mm 3 mps 642 mmHg 70%
20:00 +20°C° 0.8 mm 2 mps 642 mmHg 76%
21:00 +19°C° 0.8 mm 2 mps 641 mmHg 82%
22:00 +19°C° 1.1 mm 2 mps 641 mmHg 82%
23:00 +18°C° 1.1 mm 2 mps 641 mmHg 82%

Day after tomorrow, 12 July, Sunday

Time Temperature Precipitation Wind Pressure Humidity
00:00 +18°C° 1.1 mm 2 mps 641 mmHg 83%
01:00 +19°C° 0.2 mm 1 mps 641 mmHg 82%
02:00 +19°C° 0.2 mm 1 mps 640 mmHg 82%
03:00 +18°C° 0.2 mm 1 mps 640 mmHg 81%
04:00 +19°C° 0 mm 1 mps 640 mmHg 80%
05:00 +19°C° 0 mm 1 mps 640 mmHg 80%
06:00 +19°C° 0 mm 1 mps 640 mmHg 79%
07:00 +20°C° 0.3 mm 1 mps 640 mmHg 75%
08:00 +21°C° 0.3 mm 1 mps 640 mmHg 72%
09:00 +23°C° 0.3 mm 1 mps 641 mmHg 68%
10:00 +23°C° 1.1 mm 2 mps 641 mmHg 65%
11:00 +24°C° 1.1 mm 2 mps 641 mmHg 62%
12:00 +25°C° 1.1 mm 2 mps 641 mmHg 59%
13:00 +26°C° 1.3 mm 1 mps 641 mmHg 57%
14:00 +26°C° 1.3 mm 1 mps 640 mmHg 56%
15:00 +27°C° 1.3 mm 1 mps 640 mmHg 55%
16:00 +26°C° 0.7 mm 2 mps 640 mmHg 57%
17:00 +26°C° 0.7 mm 2 mps 640 mmHg 59%
18:00 +25°C° 0.7 mm 3 mps 640 mmHg 62%
19:00 +24°C° 0.4 mm 3 mps 640 mmHg 64%
20:00 +21°C° 0.4 mm 3 mps 640 mmHg 67%
21:00 +20°C° 0.4 mm 3 mps 640 mmHg 69%
22:00 +20°C° 0.5 mm 3 mps 639 mmHg 72%
23:00 +19°C° 0.5 mm 2 mps 639 mmHg 74%

13 July, Monday

Time Temperature Precipitation Wind Pressure Humidity
00:00 +19°C° 0.5 mm 2 mps 639 mmHg 76%
01:00 +19°C° 0.2 mm 2 mps 638 mmHg 77%
02:00 +18°C° 0.2 mm 2 mps 638 mmHg 78%
03:00 +17°C° 0.2 mm 2 mps 637 mmHg 78%
04:00 +18°C° 0.6 mm 2 mps 638 mmHg 78%
05:00 +19°C° 0.6 mm 1 mps 638 mmHg 78%
06:00 +19°C° 0.6 mm 1 mps 638 mmHg 78%
07:00 +21°C° 0.5 mm 1 mps 638 mmHg 72%
08:00 +23°C° 0.5 mm 1 mps 638 mmHg 66%
09:00 +24°C° 0.5 mm 1 mps 639 mmHg 59%
10:00 +25°C° 0.7 mm 2 mps 639 mmHg 57%
11:00 +26°C° 0.7 mm 2 mps 639 mmHg 54%
12:00 +27°C° 0.7 mm 2 mps 639 mmHg 51%
13:00 +27°C° 0.9 mm 2 mps 639 mmHg 49%
14:00 +27°C° 0.9 mm 1 mps 638 mmHg 48%
15:00 +28°C° 0.9 mm 1 mps 638 mmHg 46%
16:00 +27°C° 0.8 mm 2 mps 638 mmHg 51%
17:00 +26°C° 0.8 mm 2 mps 638 mmHg 56%
18:00 +25°C° 0.8 mm 2 mps 638 mmHg 61%
19:00 +23°C° 1 mm 2 mps 638 mmHg 66%
20:00 +21°C° 1 mm 2 mps 638 mmHg 72%
21:00 +20°C° 1 mm 1 mps 638 mmHg 78%
22:00 +20°C° 0.3 mm 1 mps 638 mmHg 77%
23:00 +20°C° 0.3 mm 1 mps 638 mmHg 76%

14 July, Tuesday

Time Temperature Precipitation Wind Pressure Humidity
00:00 +20°C° 0.3 mm 1 mps 638 mmHg 75%
01:00 +19°C° 0 mm 1 mps 638 mmHg 75%
02:00 +19°C° 0 mm 1 mps 638 mmHg 75%
03:00 +18°C° 0 mm 1 mps 638 mmHg 75%
04:00 +19°C° 0 mm 1 mps 638 mmHg 74%
05:00 +19°C° 0 mm 1 mps 639 mmHg 74%
06:00 +20°C° 0 mm 1 mps 639 mmHg 73%
07:00 +21°C° 0.3 mm 1 mps 639 mmHg 68%
08:00 +23°C° 0.3 mm 1 mps 640 mmHg 64%
09:00 +24°C° 0.3 mm 1 mps 640 mmHg 59%
10:00 +25°C° 0.5 mm 1 mps 641 mmHg 55%
11:00 +26°C° 0.5 mm 1 mps 641 mmHg 52%
12:00 +27°C° 0.5 mm 1 mps 641 mmHg 49%
13:00 +27°C° 0.3 mm 1 mps 641 mmHg 47%
14:00 +28°C° 0.3 mm 1 mps 641 mmHg 45%
15:00 +28°C° 0.3 mm 2 mps 641 mmHg 43%
16:00 +27°C° 0.2 mm 2 mps 641 mmHg 48%
17:00 +27°C° 0.2 mm 2 mps 641 mmHg 52%
18:00 +26°C° 0.2 mm 3 mps 641 mmHg 57%
19:00 +24°C° 0 mm 3 mps 641 mmHg 60%
20:00 +22°C° 0 mm 3 mps 641 mmHg 64%
21:00 +20°C° 0 mm 4 mps 641 mmHg 67%
22:00 +20°C° 0 mm 3 mps 641 mmHg 66%
23:00 +19°C° 0 mm 3 mps 641 mmHg 65%

15 July, Wednesday

Time Temperature Precipitation Wind Pressure Humidity
00:00 +19°C° 0 mm 2 mps 641 mmHg 64%
01:00 +18°C° 0 mm 2 mps 641 mmHg 65%
02:00 +18°C° 0 mm 2 mps 641 mmHg 65%
03:00 +18°C° 0 mm 2 mps 641 mmHg 65%
04:00 +18°C° 0 mm 2 mps 642 mmHg 66%
05:00 +20°C° 0 mm 1 mps 642 mmHg 66%
06:00 +20°C° 0 mm 1 mps 642 mmHg 67%
07:00 +22°C° 0.1 mm 1 mps 643 mmHg 62%
08:00 +24°C° 0.1 mm 1 mps 643 mmHg 58%
09:00 +25°C° 0.1 mm 1 mps 643 mmHg 54%
10:00 +26°C° 0.3 mm 2 mps 643 mmHg 51%
11:00 +27°C° 0.3 mm 2 mps 643 mmHg 48%
12:00 +28°C° 0.3 mm 2 mps 643 mmHg 45%
13:00 +29°C° 0.3 mm 2 mps 643 mmHg 43%
14:00 +29°C° 0.3 mm 2 mps 643 mmHg 42%
15:00 +30°C° 0.3 mm 2 mps 643 mmHg 40%
16:00 +28°C° 0.5 mm 2 mps 642 mmHg 46%
17:00 +27°C° 0.5 mm 3 mps 642 mmHg 53%
18:00 +26°C° 0.5 mm 3 mps 641 mmHg 59%
19:00 +24°C° 0.6 mm 3 mps 641 mmHg 63%
20:00 +21°C° 0.6 mm 3 mps 641 mmHg 67%
21:00 +20°C° 0.6 mm 2 mps 641 mmHg 70%
22:00 +20°C° 0.7 mm 2 mps 641 mmHg 71%
23:00 +19°C° 0.7 mm 2 mps 641 mmHg 72%
Show more